Regional Weather Roundup
Issued by NWS

Home | Current Version | Previous Version | Graphics & Text | Print | Product List | Glossary On
Versions: 1 2 3 4 5 6 7 8 9 10 11 12 13 14 15 16 17 18 19 20 21 22 23 24 25 26 27 28 29 30 31 32 33 34 35 36 37 38 39 40 41 42 43 44 45 46 47 48 49 50
000
ASUS43 KLSX 161857
RWRMO

WEATHER SUMMARY FOR MISSOURI
NATIONAL WEATHER SERVICE SPRINGFIELD MO
100 PM CST SAT DEC 16 2017

NOTE: "FAIR" INDICATES FEW OR NO CLOUDS BELOW 12,000 FEET WITH NO
       SIGNIFICANT WEATHER AND/OR OBSTRUCTIONS TO VISIBILITY.
       CURRENT SKY AND/OR WEATHER CONDITIONS ARE NOT AVAILABLE FOR
       CHILLICOTHE AND FARMINGTON.

MOZ001>031-035>038-043-044-053-054-162000-
...NORTHERN AND WESTERN MISSOURI...

CITY           SKY/WX    TMP DP  RH WIND       PRES   REMARKS
KANSAS CTY INT MOSUNNY   54  27  35 S16       29.87F
LEE`S SUMMIT   SUNNY     58  28  32 SW22G30   29.88F
ST JOSEPH      SUNNY     54  28  36 SW16      29.86F
CHILLICOTHE      N/A     53  27  36 S12       29.88F

$$
MOZ066>068-077>081-088>096-101>105-162000-
...SOUTHWEST MISSOURI...

CITY           SKY/WX    TMP DP  RH WIND       PRES   REMARKS
SPRINGFIELD    SUNNY     59  26  28 SW17      29.99F
JOPLIN         SUNNY     56  27  32 SW18G29   29.98F

$$
MOZ032>034-039>042-045>050-055>058-069>072-162000-
...CENTRAL MISSOURI...

CITY           SKY/WX    TMP DP  RH WIND       PRES   REMARKS
COLUMBIA       NOT AVBL
JEFFERSON CITY SUNNY     60  27  28 SW12G22   29.94F
ROLLA          SUNNY     58  27  30 SW14G26   29.97F
SEDALIA        SUNNY     60  28  29 SW22      29.92F
WARRENSBURG    SUNNY     57  27  30 S18G24    29.90F

$$
MOZ051-052-059>065-162000-
...EAST CENTRAL MISSOURI...

CITY           SKY/WX    TMP DP  RH WIND       PRES   REMARKS
ST LOUIS INTL  MOSUNNY   59  27  29 SW17G24   29.96F

$$
MOZ072>076-082>087-097>100-106>115-162000-
...SOUTH CENTRAL AND SOUTHEAST MISSOURI...

CITY           SKY/WX    TMP DP  RH WIND       PRES   REMARKS
CAPE GIRARDEAU SUNNY     52  32  46 S16G28    30.09F
POPLAR BLUFF   SUNNY     53  32  44 SW13      30.09F
WEST PLAINS    SUNNY     55  25  31 SW10G16   30.04F

$$



USA.gov is the U.S. government's official web portal to all federal, state and local government web resources and services.